Starlink 32206

operational
NORAD ID: 60273 Int'l Des: 2024-131 Owner: SPXS Country: US Constellation: starlink
LEOCIRCULAR

About Starlink 32206

Description loading...

Live Position

Loading 3D Globe...

Upcoming Passes

Altitude History

Altitude vs Time

uPlot chart will show altitude changes over time

Two-Line Element Set

1 60273U 24131U 25257.98188353 -.00001052 00000-0 -23415-4 0 9994
2 60273 53.1599 148.8222 0001195 83.2312 276.8825 15.30195632 64816
Epoch: Sep 14, 2025 • Age: 27 hours

Current Status

Altitude 477.8 km
Velocity 7.63 km/s
Sub-Earth Point -8.25°S, 71.23°W
Launch Date Jul 27, 2024
Age 1.1 years
Type internet

Technical Details

Classification Payload
Mass 730.00 kg
Dry Mass 700.00 kg
Total Mass 730.00 kg
Length 0.30 m
Diameter 4.10 m
Span 29.00 m
Shape Box + pan
Manufacturer SPXS
Bus Type Starlink V2M
Phase Status In Orbit
Owner/State SPXS/US

Large Constellations

Loading constellations...